VOE1664 LIMJ-LFPO

Flight info

Callsign VOE1664
Flight time N/A
Altitude 34000
Route LAGEN DCT TOP DCT AOSTA DCT ORSUD DCT MOLUS DCT UNKIR DCT DJL
Aircraft A320/M-SDFGHIJ1RWY/LB1

Departure

Time 2026-04-12 12:42
Airport Genoa Cristoforo Colombo Airport (LIMJ)

Arrival

Time N/A
Airport Paris-Orly Airport (LFPO)
Time Latitude Longitude Altitude Speed Heading
2026-04-12 12:15 44.41418 8.85039 22 ft 0 kts 15°
2026-04-12 12:32 44.41393 8.85030 22 ft 4 kts 10°
2026-04-12 12:33 44.41367 8.85026 24 ft 4 kts 358°
2026-04-12 12:33 44.41343 8.85033 22 ft 4 kts 314°
2026-04-12 12:33 44.41336 8.85044 22 ft 0 kts 285°
2026-04-12 12:36 44.41341 8.85018 23 ft 7 kts 282°
2026-04-12 12:36 44.41354 8.84936 20 ft 8 kts 284°
2026-04-12 12:36 44.41368 8.84865 20 ft 7 kts 284°
2026-04-12 12:37 44.41380 8.84801 20 ft 8 kts 285°
2026-04-12 12:37 44.41400 8.84698 22 ft 14 kts 285°
2026-04-12 12:37 44.41396 8.84557 22 ft 15 kts 239°
2026-04-12 12:37 44.41337 8.84446 20 ft 13 kts 233°
2026-04-12 12:38 44.41319 8.84333 20 ft 12 kts 284°
2026-04-12 12:38 44.41340 8.84229 20 ft 11 kts 285°
2026-04-12 12:38 44.41365 8.84099 20 ft 17 kts 285°
2026-04-12 12:38 44.41401 8.83917 22 ft 21 kts 285°
2026-04-12 12:39 44.41439 8.83724 20 ft 21 kts 285°
2026-04-12 12:39 44.41477 8.83526 20 ft 21 kts 285°
2026-04-12 12:39 44.41516 8.83325 20 ft 22 kts 286°
2026-04-12 12:39 44.41559 8.83118 23 ft 23 kts 285°
2026-04-12 12:40 44.41602 8.82899 22 ft 24 kts 283°
2026-04-12 12:40 44.41645 8.82665 22 ft 25 kts 285°
2026-04-12 12:40 44.41653 8.82535 19 ft 11 kts 240°
2026-04-12 12:40 44.41571 8.82489 17 ft 14 kts 193°
2026-04-12 12:41 44.41515 8.82554 18 ft 11 kts 103°
2026-04-12 12:41 44.41485 8.82708 22 ft 33 kts 105°
2026-04-12 12:41 44.41360 8.83351 22 ft 101 kts 105°
2026-04-12 12:41 44.41125 8.84554 24 ft 153 kts 105°
2026-04-12 12:42 44.40813 8.86092 416 ft 167 kts 105°
2026-04-12 12:42 44.39536 8.88833 1599 ft 182 kts 153°
2026-04-12 12:42 44.38276 8.89192 2099 ft 194 kts 189°
2026-04-12 12:43 44.37081 8.88398 2660 ft 197 kts 226°
2026-04-12 12:43 44.36165 8.86983 3305 ft 197 kts 229°
2026-04-12 12:43 44.35261 8.85536 3917 ft 198 kts 228°
2026-04-12 12:43 44.34352 8.84077 4540 ft 200 kts 226°
2026-04-12 12:44 44.33352 8.82745 5141 ft 199 kts 210°
2026-04-12 12:44 44.32078 8.82056 5731 ft 196 kts 186°
2026-04-12 12:44 44.30721 8.81919 6352 ft 195 kts 182°
2026-04-12 12:44 44.29360 8.81799 6976 ft 196 kts 182°
2026-04-12 12:45 44.28015 8.81679 7641 ft 197 kts 182°
2026-04-12 12:45 44.26646 8.81556 8291 ft 198 kts 182°
2026-04-12 12:45 44.25268 8.81431 8940 ft 199 kts 182°
2026-04-12 12:45 44.23861 8.81303 9434 ft 211 kts 182°
2026-04-12 12:46 44.22313 8.81162 9714 ft 234 kts 182°
2026-04-12 12:46 44.20603 8.81010 10009 ft 258 kts 182°
2026-04-12 12:46 44.18746 8.80846 10396 ft 274 kts 182°
2026-04-12 12:46 44.16845 8.80677 11077 ft 279 kts 182°
2026-04-12 12:47 44.14869 8.80496 11580 ft 294 kts 182°
2026-04-12 12:47 44.12759 8.80232 11817 ft 316 kts 190°
2026-04-12 12:47 44.10702 8.78895 11975 ft 343 kts 217°
2026-04-12 12:47 44.09190 8.76185 12116 ft 372 kts 243°
2026-04-12 12:48 44.08611 8.72577 12247 ft 398 kts 268°
2026-04-12 12:48 44.09155 8.68710 12382 ft 421 kts 290°
2026-04-12 12:48 44.10839 8.65342 12975 ft 429 kts 316°
2026-04-12 12:48 44.13334 8.63112 13763 ft 428 kts 338°
2026-04-12 12:49 44.16048 8.61787 14956 ft 410 kts 339°
2026-04-12 12:49 44.18533 8.60034 16135 ft 396 kts 325°
2026-04-12 12:49 44.20795 8.57868 16956 ft 394 kts 323°
2026-04-12 12:49 44.23041 8.55675 17628 ft 395 kts 323°
2026-04-12 12:50 44.25292 8.53453 18251 ft 398 kts 323°
2026-04-12 12:50 44.27558 8.51205 18764 ft 401 kts 323°
2026-04-12 12:50 44.29836 8.48939 19306 ft 403 kts 322°
2026-04-12 12:50 44.32123 8.46668 19878 ft 404 kts 322°
2026-04-12 12:51 44.34389 8.44424 20413 ft 405 kts 322°
2026-04-12 12:51 44.36697 8.42142 20963 ft 407 kts 322°
2026-04-12 12:51 44.39014 8.39850 21492 ft 409 kts 322°
2026-04-12 12:51 44.41341 8.37543 21999 ft 411 kts 322°
2026-04-12 12:52 44.43680 8.35217 22489 ft 413 kts 322°
2026-04-12 12:52 44.46029 8.32881 22995 ft 415 kts 322°
2026-04-12 12:52 44.48390 8.30533 23499 ft 417 kts 322°
2026-04-12 12:52 44.50760 8.28175 23904 ft 419 kts 322°
2026-04-12 12:53 44.53147 8.25799 24272 ft 422 kts 322°
2026-04-12 12:53 44.55512 8.23440 24623 ft 425 kts 321°
2026-04-12 12:53 44.57925 8.21030 24960 ft 427 kts 321°
2026-04-12 12:53 44.60353 8.18600 25309 ft 430 kts 321°
2026-04-12 12:54 44.62797 8.16153 25647 ft 433 kts 321°
2026-04-12 12:54 44.65258 8.13686 25984 ft 436 kts 321°
2026-04-12 12:54 44.67731 8.11200 26318 ft 439 kts 321°
2026-04-12 12:54 44.70221 8.08695 26638 ft 441 kts 321°
2026-04-12 12:55 44.72726 8.06176 26976 ft 444 kts 321°
2026-04-12 12:55 44.75212 8.03678 27300 ft 447 kts 321°
2026-04-12 12:55 44.77749 8.01129 27631 ft 450 kts 321°
2026-04-12 12:55 44.80304 7.98560 27970 ft 453 kts 321°
2026-04-12 12:56 44.82873 7.95970 28302 ft 455 kts 321°
2026-04-12 12:56 44.85451 7.93363 28616 ft 458 kts 320°
2026-04-12 12:56 44.88042 7.90734 28926 ft 460 kts 320°
2026-04-12 12:56 44.90647 7.88092 29221 ft 463 kts 321°
2026-04-12 12:57 44.93423 7.85732 29510 ft 470 kts 330°
2026-04-12 12:57 44.96396 7.83908 29794 ft 474 kts 334°
2026-04-12 12:57 44.99453 7.82139 30067 ft 476 kts 334°
2026-04-12 12:57 45.02524 7.80353 30305 ft 478 kts 334°
2026-04-12 12:58 45.05608 7.78548 30550 ft 481 kts 334°
2026-04-12 12:58 45.08702 7.76731 30792 ft 482 kts 334°
2026-04-12 12:58 45.11809 7.74909 31026 ft 484 kts 334°
2026-04-12 12:58 45.14918 7.73088 31365 ft 483 kts 334°
2026-04-12 12:59 45.18022 7.71266 31688 ft 483 kts 334°
2026-04-12 12:59 45.21082 7.69465 32009 ft 483 kts 334°
2026-04-12 12:59 45.24184 7.67636 32333 ft 483 kts 334°
2026-04-12 12:59 45.27284 7.65807 32636 ft 483 kts 333°
2026-04-12 13:00 45.30383 7.63974 32947 ft 483 kts 333°
2026-04-12 13:00 45.33484 7.62140 33255 ft 483 kts 333°
2026-04-12 13:00 45.36587 7.60304 33549 ft 483 kts 333°
2026-04-12 13:00 45.39690 7.58467 33870 ft 483 kts 333°
2026-04-12 13:01 45.42789 7.56626 34026 ft 482 kts 333°
2026-04-12 13:01 45.45829 7.54823 34042 ft 478 kts 334°
2026-04-12 13:01 45.51951 7.51185 34047 ft 476 kts 333°
2026-04-12 13:02 45.58050 7.47536 34039 ft 475 kts 333°
2026-04-12 13:02 45.64149 7.43878 34033 ft 476 kts 333°
2026-04-12 13:03 45.70249 7.40218 34034 ft 477 kts 333°
2026-04-12 13:03 45.76323 7.36573 34021 ft 475 kts 333°
2026-04-12 13:04 45.82075 7.32151 34021 ft 464 kts 319°
2026-04-12 13:04 45.87335 7.26800 34012 ft 463 kts 319°
2026-04-12 13:05 45.92581 7.21432 33993 ft 463 kts 319°
2026-04-12 13:05 45.97793 7.16106 33974 ft 462 kts 319°
2026-04-12 13:06 46.03034 7.10749 33988 ft 462 kts 319°
2026-04-12 13:06 46.08268 7.05377 33984 ft 462 kts 319°
2026-04-12 13:07 46.13492 7.00005 33972 ft 461 kts 319°
2026-04-12 13:07 46.18666 6.94665 33973 ft 460 kts 319°
2026-04-12 13:08 46.23873 6.89287 33972 ft 460 kts 319°
2026-04-12 13:08 46.29079 6.83894 33990 ft 460 kts 319°
2026-04-12 13:09 46.34279 6.78496 34003 ft 460 kts 318°
2026-04-12 13:09 46.39431 6.73127 34009 ft 459 kts 318°
2026-04-12 13:10 46.44215 6.67154 33997 ft 448 kts 304°
2026-04-12 13:10 46.47631 6.59787 34006 ft 438 kts 292°
2026-04-12 13:11 46.50654 6.52117 34008 ft 438 kts 293°
2026-04-12 13:11 46.53686 6.44433 34027 ft 438 kts 292°
2026-04-12 13:12 46.56713 6.36736 34021 ft 439 kts 292°
2026-04-12 13:12 46.59717 6.29076 34018 ft 439 kts 292°
2026-04-12 13:13 46.62739 6.21350 34018 ft 439 kts 292°
2026-04-12 13:13 46.65753 6.13616 34028 ft 439 kts 292°
2026-04-12 13:14 46.68759 6.05871 34055 ft 440 kts 292°
2026-04-12 13:14 46.71749 5.98167 34053 ft 440 kts 292°
2026-04-12 13:15 46.74751 5.90405 34045 ft 440 kts 292°
2026-04-12 13:15 46.77747 5.82628 34053 ft 440 kts 291°
2026-04-12 13:16 46.80785 5.74877 34050 ft 444 kts 296°
2026-04-12 13:16 46.84948 5.68036 34070 ft 457 kts 310°
2026-04-12 13:17 46.89573 5.61737 34056 ft 458 kts 309°
2026-04-12 13:17 46.94215 5.55353 34056 ft 458 kts 309°
2026-04-12 13:18 46.98857 5.48956 34058 ft 458 kts 309°
2026-04-12 13:19 47.05824 5.39338 34066 ft 459 kts 309°
2026-04-12 13:19 47.10430 5.32964 34091 ft 458 kts 308°
2026-04-12 13:20 47.15059 5.26531 34090 ft 458 kts 308°
2026-04-12 13:20 47.18902 5.21170 34083 ft 459 kts 308°
2026-04-12 13:21 47.24309 5.13606 34065 ft 460 kts 308°